Data charts dashboard

Select data range

 
Start datetime:
 
 
End datetime:
 
 
Load data
 
Get the data!
Showing results from 2021/03/01 17:16 to 2021/03/01 23:16 (UTC)

Timestamp (UTC) Station Temperature Humidity Pressure Soundlevel Lightlevel
3/1/2021 11:14:31 PM loftsensor @ 868.5 Mhz 20 47 1031.8 0 0
3/1/2021 11:09:26 PM loftsensor @ 868.3 Mhz 20.1 47 1031.8 0 0
3/1/2021 11:04:22 PM loftsensor @ 868.3 Mhz 20.1 47 1031.8 0 0
3/1/2021 10:59:17 PM loftsensor @ 868.1 Mhz 20.04 47 1031.8 0 0
3/1/2021 10:54:12 PM loftsensor @ 868.3 Mhz 20.1 47 1032 0 0
3/1/2021 10:49:08 PM loftsensor @ 868.1 Mhz 20.1 47 1031.8 0 0
3/1/2021 10:44:04 PM loftsensor @ 868.5 Mhz 20.1 47 1031.8 0 0
3/1/2021 10:38:59 PM loftsensor @ 868.5 Mhz 20.15 47 1031.8 0 0
3/1/2021 10:33:55 PM loftsensor @ 868.5 Mhz 20.2 47 1031.8 0 0
3/1/2021 10:28:50 PM loftsensor @ 868.3 Mhz 20.15 47 1031.9 0 0
3/1/2021 10:23:46 PM loftsensor @ 868.3 Mhz 20.2 47 1031.8 0 0
3/1/2021 10:18:41 PM loftsensor @ 868.1 Mhz 20.2 47 1031.9 0 0
3/1/2021 10:13:37 PM loftsensor @ 868.1 Mhz 20.25 47 1031.7 0 0
3/1/2021 10:08:32 PM loftsensor @ 868.1 Mhz 20.2 47 1031.8 0 0
3/1/2021 10:03:28 PM loftsensor @ 868.1 Mhz 20.2 47 1031.8 0 0
3/1/2021 9:58:23 PM loftsensor @ 868.3 Mhz 20.2 47 1031.7 0 0
3/1/2021 9:53:19 PM loftsensor @ 868.5 Mhz 20.29 47 1031.6 0 0
3/1/2021 9:48:14 PM loftsensor @ 868.3 Mhz 20.2 47 1031.7 0 0
3/1/2021 9:43:10 PM loftsensor @ 868.1 Mhz 20.2 47 1031.7 0 0
3/1/2021 9:38:05 PM loftsensor @ 868.3 Mhz 20.2 47 1031.7 0 0
3/1/2021 9:33:01 PM loftsensor @ 868.3 Mhz 20.2 47 1031.6 0 0
3/1/2021 9:27:56 PM loftsensor @ 868.1 Mhz 20.2 47 1031.5 0 0
3/1/2021 9:22:52 PM loftsensor @ 868.1 Mhz 20.2 47 1031.5 0 0
3/1/2021 9:17:47 PM loftsensor @ 868.3 Mhz 20.29 47 1031.6 0 0
3/1/2021 9:12:43 PM loftsensor @ 868.3 Mhz 20.2 47 1031.6 0 0
3/1/2021 9:07:38 PM loftsensor @ 868.1 Mhz 20.25 47 1031.5 0 0
3/1/2021 9:02:34 PM loftsensor @ 868.3 Mhz 20.2 47 1031.6 0 0
3/1/2021 8:57:29 PM loftsensor @ 868.5 Mhz 20.25 47 1031.5 0 0
3/1/2021 8:52:25 PM loftsensor @ 868.3 Mhz 20.29 47 1031.5 0 0
3/1/2021 8:47:20 PM loftsensor @ 868.1 Mhz 20.25 47 1031.6 0 0
3/1/2021 8:42:16 PM loftsensor @ 868.3 Mhz 20.29 47 1031.4 0 0
3/1/2021 8:37:11 PM loftsensor @ 868.1 Mhz 20.25 47 1031.5 0 0
3/1/2021 8:32:07 PM loftsensor @ 868.5 Mhz 20.25 47 1031.4 0 0
3/1/2021 8:27:02 PM loftsensor @ 868.5 Mhz 20.25 47 1031.5 0 0
3/1/2021 8:21:58 PM loftsensor @ 868.5 Mhz 20.29 47 1031.7 0 0
3/1/2021 8:16:53 PM loftsensor @ 868.1 Mhz 20.29 47 1031.7 0 0
3/1/2021 8:11:48 PM loftsensor @ 868.5 Mhz 20.29 47 1031.6 0 0
3/1/2021 8:06:44 PM loftsensor @ 868.3 Mhz 20.25 47 1031.6 0 0
3/1/2021 8:01:39 PM loftsensor @ 868.1 Mhz 20.29 47 1031.8 0 0
3/1/2021 7:56:35 PM loftsensor @ 868.5 Mhz 20.25 47 1031.7 0 0
3/1/2021 7:51:30 PM loftsensor @ 868.5 Mhz 20.25 48 1031.7 0 0
3/1/2021 7:46:26 PM loftsensor @ 868.5 Mhz 20.29 47 1031.7 0 0
3/1/2021 7:41:21 PM loftsensor @ 868.5 Mhz 20.29 48 1031.8 0 0
3/1/2021 7:36:17 PM loftsensor @ 868.3 Mhz 20.29 48 1031.8 0 0
3/1/2021 7:31:12 PM loftsensor @ 868.3 Mhz 20.29 48 1031.8 0 0
3/1/2021 7:26:07 PM loftsensor @ 868.5 Mhz 20.29 48 1031.9 0 0
3/1/2021 7:21:03 PM loftsensor @ 868.3 Mhz 20.29 48 1031.8 0 0
3/1/2021 7:10:53 PM loftsensor @ 868.1 Mhz 20.25 48 1032 0 0
3/1/2021 7:05:49 PM loftsensor @ 868.5 Mhz 20.25 48 1032 0 0
3/1/2021 7:00:44 PM loftsensor @ 868.1 Mhz 20.25 47 1032.1 0 0
3/1/2021 6:55:40 PM loftsensor @ 868.3 Mhz 20.25 48 1032.1 0 0
3/1/2021 6:50:35 PM loftsensor @ 868.1 Mhz 20.2 48 1032.1 0 0
3/1/2021 6:45:30 PM loftsensor @ 868.5 Mhz 20.2 48 1032.1 0 0
3/1/2021 6:40:26 PM loftsensor @ 868.3 Mhz 20.2 48 1032 0 0
3/1/2021 6:35:21 PM loftsensor @ 868.5 Mhz 20.2 48 1032 0 0
3/1/2021 6:30:16 PM loftsensor @ 868.3 Mhz 20.2 48 1032.1 0 0
3/1/2021 6:25:12 PM loftsensor @ 868.5 Mhz 20.15 48 1032.1 0 0
3/1/2021 6:20:07 PM loftsensor @ 868.5 Mhz 20.2 47 1032.1 0 0
3/1/2021 6:15:02 PM loftsensor @ 868.3 Mhz 20.2 48 1032.1 0 0
3/1/2021 6:09:58 PM loftsensor @ 868.1 Mhz 20.15 47 1032 0 0
3/1/2021 6:04:53 PM loftsensor @ 868.3 Mhz 20.15 47 1032.1 0 0
3/1/2021 5:59:48 PM loftsensor @ 868.3 Mhz 20.2 47 1032 0 0
3/1/2021 5:54:44 PM loftsensor @ 868.5 Mhz 20.2 47 1032.1 0 0
3/1/2021 5:49:39 PM loftsensor @ 868.5 Mhz 20.1 47 1031.8 0 0
3/1/2021 5:44:35 PM loftsensor @ 868.1 Mhz 20.15 47 1032 0 0
3/1/2021 5:39:30 PM loftsensor @ 868.1 Mhz 20.1 47 1031.9 0 0
3/1/2021 5:34:26 PM loftsensor @ 868.5 Mhz 20.2 47 1032 0 0
3/1/2021 5:29:21 PM loftsensor @ 868.3 Mhz 20.1 47 1032 0 0
3/1/2021 5:24:17 PM loftsensor @ 868.5 Mhz 20.2 47 1031.8 0 0
3/1/2021 5:19:12 PM loftsensor @ 868.3 Mhz 20.15 47 1031.9 0 0